This demonstration page uses our WeatherBlox Daily Observations layout. Learn more.

Left ArrowRight Arrow

44.89941, -97.11507

Hourly Observations for November 11, 2020

Temp ( °F °C ) Dew Point ( °F °C ) Humidity (%) Winds ( mph kmh ) Pressure ( in mb ) Visibility ( mi km ) Precip ( " mm )
12:53 am 00:53 Clear 22 -5.6 19 -7.2 89 89 S 8 13 29.84 1011 10 16 0.00 0.00
1:53 am 01:53 Clear 20 -6.7 18 -7.8 92 92 SE 9 15 29.83 1010 10 16 0.00 0.00
2:53 am 02:53 Clear 21 -6.1 19 -7.2 92 92 S 9 15 29.84 1011 10 16 0.00 0.00
3:53 am 03:53 Clear 24 -4.4 22 -5.6 91 91 SSW 13 20 29.84 1011 10 16 0.00 0.00
4:53 am 04:53 Clear 24 -4.4 22 -5.6 91 91 SSW 9 15 29.85 1011 10 16 0.00 0.00
5:53 am 05:53 Clear 23 -5 21 -6.1 92 92 S 8 13 29.86 1011 10 16 0.00 0.00
6:53 am 06:53 Clear 24 -4.4 21 -6.1 88 88 S 8 13 29.85 1011 10 16 0.00 0.00
7:53 am 07:53 Partly Cloudy 23 -5 20 -6.7 88 88 SE 7 11 29.88 1012 10 16 0.00 0.00
8:53 am 08:53 Sunny 23 -5 21 -6.1 92 92 SSE 8 13 29.89 1012 10 16 0.00 0.00
9:53 am 09:53 Sunny 29 -1.7 25 -3.9 85 85 S 9 15 29.89 1012 10 16 0.00 0.00
10:53 am 10:53 Sunny 33 0.6 28 -2.2 82 82 SSW 13 20 29.89 1012 10 16 0.00 0.00
11:53 am 11:53 Sunny 37 2.8 31 -0.6 79 79 SSW 17 28 29.88 1012 10 16 0.00 0.00
12:53 pm 12:53 Sunny 40 4.4 32 0 73 73 SW 16 26 29.86 1011 10 16 0.00 0.00
1:53 pm 13:53 Sunny 42 5.6 30 -1.1 62 62 WSW 16 26 29.85 1011 10 16 0.00 0.00
2:53 pm 14:53 Sunny 42 5.6 31 -0.6 65 65 SW 16 26 29.86 1011 10 16 0.00 0.00
3:53 pm 15:53 Sunny 40 4.4 32 0 73 73 SW 15 24 29.87 1011 10 16 0.00 0.00
4:53 pm 16:53 Sunny 37 2.8 31 -0.6 79 79 SW 15 24 29.89 1012 10 16 0.00 0.00
5:53 pm 17:53 Clear 34 1.1 31 -0.6 89 89 SSW 13 20 29.91 1013 10 16 0.00 0.00
6:53 pm 18:53 Clear 33 0.6 30 -1.1 89 89 SW 12 19 29.93 1014 10 16 0.00 0.00
7:53 pm 19:53 Clear 32 0 29 -1.7 88 88 WSW 7 11 29.97 1015 10 16 0.00 0.00
8:53 pm 20:53 Clear 33 0.6 28 -2.2 82 82 NW 13 20 29.99 1016 10 16 0.00 0.00
9:53 pm 21:53 Mostly Cloudy 31 -0.6 23 -5 72 72 NW 17 28 30.01 1016 10 16 0.00 0.00
10:53 pm 22:53 Clear 28 -2.2 20 -6.7 72 72 NW 13 20 30.01 1016 10 16 0.00 0.00
11:53 pm 23:53 Mostly Clear 27 -2.8 18 -7.8 69 69 NW 10 17 30.01 1016 10 16 0.00 0.00

Powered by AerisWeather